| time (UTC) | temp F | wind direction | speed knots | gust knots | rain 1hr in | rain 24hr in | rain mn in | humidity % | barometer mb |
| 20260507124536 | 54 | 327 | 2.6 | 7.0 | 0.00 | 0.31 | 0.10 | 70 | 1006.1 |
| 20260507124035 | 53 | 277 | 1.7 | 7.0 | 0.00 | 0.31 | 0.10 | 71 | 1006.1 |
| 20260507123536 | 53 | 267 | 3.5 | 7.0 | 0.00 | 0.31 | 0.10 | 71 | 1006.2 |
| 20260507123039 | 53 | 301 | 2.6 | 5.2 | 0.00 | 0.31 | 0.10 | 72 | 1006.1 |
| 20260507122532 | 52 | 283 | 2.6 | 8.7 | 0.00 | 0.31 | 0.10 | 71 | 1006.1 |
| 20260507122029 | 52 | 319 | 1.7 | 8.7 | 0.00 | 0.31 | 0.10 | 73 | 1006.1 |
| 20260507121530 | 51 | 327 | 1.7 | 5.2 | 0.00 | 0.31 | 0.10 | 73 | 1006.0 |
| 20260507121029 | 51 | 338 | 2.6 | 7.0 | 0.00 | 0.31 | 0.10 | 75 | 1005.9 |
| 20260507120528 | 51 | 310 | 2.6 | 7.0 | 0.00 | 0.31 | 0.10 | 77 | 1006.0 |
| 20260507120033 | 50 | 327 | 1.7 | 10.4 | 0.00 | 0.31 | 0.10 | 78 | 1006.1 |
| 20260507115528 | 50 | 321 | 4.3 | 10.4 | 0.00 | 0.31 | 0.10 | 78 | 1006.1 |
| 20260507115027 | 49 | 322 | 3.5 | 7.8 | 0.00 | 0.31 | 0.10 | 79 | 1005.9 |
| 20260507114526 | 49 | 346 | 2.6 | 7.0 | 0.00 | 0.31 | 0.10 | 81 | 1006.0 |
| 20260507114026 | 48 | 360 | 3.5 | 7.0 | 0.00 | 0.31 | 0.10 | 80 | 1005.9 |
| 20260507113528 | 48 | 309 | 2.6 | 7.0 | 0.00 | 0.31 | 0.10 | 81 | 1006.0 |
| 20260507113033 | 48 | 284 | 2.6 | 8.7 | 0.00 | 0.31 | 0.10 | 81 | 1005.9 |
| 20260507112526 | 48 | 321 | 3.5 | 7.0 | 0.00 | 0.31 | 0.10 | 82 | 1006.2 |
| 20260507112029 | 48 | 314 | 2.6 | 7.8 | 0.00 | 0.31 | 0.10 | 83 | 1006.1 |
| 20260507111524 | 48 | 309 | 3.5 | 7.8 | 0.00 | 0.31 | 0.10 | 83 | 1006.1 |
| 20260507111025 | 48 | 321 | 2.6 | 7.0 | 0.00 | 0.31 | 0.10 | 84 | 1006.1 |
| 20260507110525 | 48 | 308 | 1.7 | 7.0 | 0.00 | 0.31 | 0.10 | 84 | 1006.2 |
| 20260507110029 | 48 | 323 | 0.9 | 4.3 | 0.00 | 0.31 | 0.10 | 84 | 1006.3 |
| 20260507105523 | 47 | 311 | 1.7 | 5.2 | 0.00 | 0.31 | 0.10 | 84 | 1006.1 |
| 20260507105022 | 47 | 342 | 1.7 | 5.2 | 0.00 | 0.31 | 0.10 | 84 | 1006.0 |
| 20260507104522 | 47 | 317 | 1.7 | 4.3 | 0.00 | 0.31 | 0.10 | 84 | 1006.3 |
| 20260507104022 | 47 | 327 | 0.9 | 5.2 | 0.00 | 0.31 | 0.10 | 83 | 1006.5 |
| 20260507103520 | 47 | 323 | 1.7 | 7.0 | 0.00 | 0.31 | 0.10 | 83 | 1006.3 |
| 20260507103021 | 47 | 317 | 2.6 | 7.8 | 0.00 | 0.31 | 0.10 | 83 | 1006.3 |
| 20260507102519 | 47 | 312 | 3.5 | 7.8 | 0.00 | 0.31 | 0.10 | 84 | 1006.3 |
| 20260507102018 | 47 | 329 | 0.9 | 7.0 | 0.00 | 0.31 | 0.10 | 84 | 1006.5 |
| 20260507101527 | 47 | 332 | 2.6 | 7.0 | 0.00 | 0.31 | 0.10 | 84 | 1006.1 |
| 20260507101117 | 47 | 329 | 3.5 | 7.0 | 0.00 | 0.31 | 0.10 | 84 | 1006.2 |
| 20260507100516 | 47 | 283 | 1.7 | 4.3 | 0.00 | 0.31 | 0.10 | 85 | 1006.2 |
| 20260507100021 | 47 | 309 | 0.9 | 4.3 | 0.00 | 0.31 | 0.10 | 85 | 1006.3 |
| 20260507095516 | 47 | 279 | 1.7 | 7.8 | 0.00 | 0.31 | 0.10 | 85 | 1006.2 |
| 20260507095014 | 47 | 336 | 2.6 | 7.8 | 0.01 | 0.31 | 0.10 | 85 | 1005.8 |
| 20260507094513 | 47 | 341 | 1.7 | 7.0 | 0.01 | 0.31 | 0.10 | 84 | 1005.6 |
| 20260507094020 | 47 | 323 | 2.6 | 7.8 | 0.01 | 0.31 | 0.10 | 84 | 1005.5 |
| 20260507093512 | 47 | 306 | 4.3 | 7.8 | 0.01 | 0.31 | 0.10 | 85 | 1006.0 |
| 20260507093011 | 47 | 306 | 4.3 | 7.8 | 0.01 | 0.31 | 0.10 | 85 | 1005.8 |
| 20260507092511 | 47 | 336 | 3.5 | 7.0 | 0.01 | 0.31 | 0.10 | 85 | 1005.3 |
| 20260507092010 | 47 | 324 | 2.6 | 7.0 | 0.01 | 0.31 | 0.10 | 85 | 1005.1 |
| 20260507091512 | 47 | 355 | 2.6 | 9.6 | 0.01 | 0.31 | 0.10 | 85 | 1005.2 |
| 20260507091009 | 48 | 334 | 4.3 | 9.6 | 0.01 | 0.31 | 0.10 | 85 | 1005.5 |
| 20260507090509 | 48 | 326 | 3.5 | 8.7 | 0.01 | 0.31 | 0.10 | 84 | 1005.7 |
| 20260507090010 | 48 | 292 | 3.5 | 7.8 | 0.01 | 0.31 | 0.10 | 85 | 1005.6 |
| 20260507085506 | 48 | 317 | 3.5 | 9.6 | 0.01 | 0.31 | 0.10 | 84 | 1005.5 |
| 20260507085006 | 48 | 327 | 4.3 | 9.6 | 0.00 | 0.30 | 0.09 | 83 | 1005.5 |
| 20260507084504 | 48 | 326 | 3.5 | 10.4 | 0.00 | 0.30 | 0.09 | 83 | 1006.0 |
| 20260507084004 | 48 | 355 | 6.1 | 10.4 | 0.00 | 0.30 | 0.09 | 84 | 1005.9 |
| 20260507083503 | 48 | 329 | 2.6 | 11.3 | 0.00 | 0.30 | 0.09 | 84 | 1005.7 |
| 20260507083003 | 49 | 301 | 6.1 | 11.3 | 0.00 | 0.30 | 0.09 | 84 | 1005.6 |
| 20260507082502 | 49 | 325 | 5.2 | 10.4 | 0.00 | 0.30 | 0.09 | 85 | 1005.2 |
| 20260507082002 | 49 | 17 | 2.6 | 11.3 | 0.00 | 0.30 | 0.09 | 86 | 1005.0 |
| 20260507081501 | 49 | 300 | 5.2 | 12.2 | 0.00 | 0.30 | 0.09 | 86 | 1005.1 |
| 20260507081104 | 49 | 338 | 3.5 | 12.2 | 0.00 | 0.30 | 0.09 | 87 | 1005.0 |
| 20260507080559 | 49 | 314 | 3.5 | 9.6 | 0.00 | 0.30 | 0.09 | 88 | 1005.4 |
| 20260507080059 | 49 | 295 | 1.7 | 9.6 | 0.00 | 0.30 | 0.09 | 88 | 1005.4 |
| 20260507075557 | 49 | 283 | 3.5 | 9.6 | 0.00 | 0.30 | 0.09 | 89 | 1005.2 |
| 20260507075056 | 49 | 320 | 5.2 | 8.7 | 0.00 | 0.30 | 0.09 | 90 | 1005.2 |
| 20260507074557 | 49 | 321 | 5.2 | 10.4 | 0.00 | 0.30 | 0.09 | 90 | 1005.0 |
| 20260507074054 | 49 | 322 | 4.3 | 9.6 | 0.00 | 0.30 | 0.09 | 92 | 1004.9 |
| 20260507073554 | 49 | 259 | 4.3 | 9.6 | 0.00 | 0.30 | 0.09 | 92 | 1005.0 |
| 20260507073103 | 49 | 342 | 2.6 | 8.7 | 0.00 | 0.30 | 0.09 | 92 | 1005.1 |
| 20260507072553 | 49 | 316 | 3.5 | 8.7 | 0.00 | 0.30 | 0.09 | 93 | 1005.0 |
| 20260507072053 | 49 | 324 | 4.3 | 8.7 | 0.00 | 0.30 | 0.09 | 93 | 1004.7 |
| 20260507071551 | 49 | 284 | 2.6 | 7.8 | 0.00 | 0.30 | 0.09 | 93 | 1004.7 |
| 20260507071051 | 49 | 325 | 3.5 | 7.8 | 0.00 | 0.30 | 0.09 | 94 | 1004.7 |
| 20260507070552 | 49 | 315 | 2.6 | 7.0 | 0.00 | 0.30 | 0.09 | 94 | 1004.9 |
| 20260507070057 | 49 | 312 | 2.6 | 4.3 | 0.00 | 0.30 | 0.09 | 94 | 1004.6 |
| 20260507065549 | 50 | 303 | 1.7 | 4.3 | 0.00 | 0.30 | 0.09 | 94 | 1004.7 |
| 20260507065048 | 50 | 319 | 0.9 | 2.6 | 0.00 | 0.30 | 0.09 | 94 | 1004.8 |
| 20260507064553 | 50 | 319 | 0.0 | 2.6 | 0.00 | 0.30 | 0.09 | 94 | 1004.9 |
| 20260507064047 | 50 | 319 | 0.9 | 3.5 | 0.00 | 0.30 | 0.09 | 94 | 1004.2 |
| 20260507063547 | 50 | 313 | 0.9 | 3.5 | 0.00 | 0.30 | 0.09 | 94 | 1004.2 |
| 20260507063046 | 50 | 303 | 0.0 | 3.5 | 0.00 | 0.30 | 0.09 | 94 | 1004.4 |
| 20260507062546 | 50 | 301 | 0.9 | 3.5 | 0.00 | 0.30 | 0.09 | 94 | 1004.4 |
| 20260507062045 | 50 | 315 | 0.9 | 7.0 | 0.00 | 0.30 | 0.09 | 94 | 1004.0 |
| 20260507061545 | 50 | 329 | 0.9 | 7.0 | 0.00 | 0.30 | 0.09 | 94 | 1003.9 |
| 20260507061044 | 50 | 313 | 1.7 | 7.0 | 0.01 | 0.30 | 0.09 | 94 | 1004.1 |
| 20260507060545 | 50 | 296 | 2.6 | 7.0 | 0.01 | 0.30 | 0.09 | 94 | 1004.0 |
| 20260507060053 | 50 | 350 | 3.5 | 8.7 | 0.01 | 0.30 | 0.09 | 95 | 1004.1 |
| 20260507055543 | 50 | 315 | 3.5 | 8.7 | 0.01 | 0.30 | 0.09 | 95 | 1004.1 |
| 20260507055042 | 50 | 23 | 3.5 | 8.7 | 0.01 | 0.30 | 0.09 | 95 | 1003.7 |
| 20260507054543 | 50 | 355 | 2.6 | 11.3 | 0.01 | 0.30 | 0.09 | 95 | 1003.8 |
| 20260507054041 | 50 | 12 | 4.3 | 11.3 | 0.01 | 0.30 | 0.09 | 95 | 1004.0 |
| 20260507053541 | 50 | 298 | 1.7 | 8.7 | 0.01 | 0.30 | 0.09 | 95 | 1004.2 |
| 20260507053040 | 51 | 319 | 3.5 | 9.6 | 0.02 | 0.30 | 0.09 | 96 | 1004.1 |
| 20260507052540 | 51 | 319 | 4.3 | 11.3 | 0.05 | 0.30 | 0.09 | 96 | 1004.1 |
| 20260507052037 | 51 | 30 | 6.1 | 12.2 | 0.06 | 0.30 | 0.09 | 96 | 1004.0 |
| 20260507051537 | 52 | 348 | 5.2 | 12.2 | 0.07 | 0.30 | 0.09 | 96 | 1003.7 |
| 20260507051035 | 52 | 335 | 2.6 | 7.8 | 0.08 | 0.28 | 0.08 | 96 | 1004.0 |
| 20260507050535 | 52 | 340 | 2.6 | 10.4 | 0.08 | 0.28 | 0.08 | 96 | 1003.9 |
| 20260507050036 | 52 | 298 | 5.2 | 10.4 | 0.08 | 0.28 | 0.08 | 97 | 1004.0 |
| 20260507045535 | 52 | 315 | 4.3 | 9.6 | 0.08 | 0.28 | 0.08 | 97 | 1003.7 |
| 20260507045033 | 52 | 311 | 1.7 | 7.8 | 0.09 | 0.28 | 0.08 | 96 | 1003.8 |
| 20260507044532 | 52 | 316 | 1.7 | 4.3 | 0.09 | 0.28 | 0.08 | 96 | 1003.6 |
| 20260507044035 | 52 | 312 | 1.7 | 4.3 | 0.09 | 0.28 | 0.08 | 96 | 1003.5 |
| 20260507043533 | 52 | 341 | 1.7 | 4.3 | 0.09 | 0.28 | 0.08 | 96 | 1003.4 |
| 20260507043032 | 52 | 296 | 1.7 | 14.8 | 0.07 | 0.27 | 0.06 | 96 | 1003.5 |
| 20260507042531 | 52 | 334 | 7.0 | 14.8 | 0.05 | 0.25 | 0.04 | 97 | 1003.9 |
| 20260507042033 | 52 | 261 | 2.6 | 5.2 | 0.04 | 0.24 | 0.03 | 97 | 1003.5 |
| 20260507041529 | 52 | 247 | 2.6 | 5.2 | 0.03 | 0.23 | 0.02 | 97 | 1003.3 |
| 20260507041029 | 51 | 277 | 2.6 | 6.1 | 0.01 | 0.21 | 0.00 | 96 | 1003.6 |
| 20260507040527 | 51 | 236 | 2.6 | 6.1 | 0.01 | 0.21 | 0.00 | 96 | 1003.4 |
| 20260507040025 | 51 | 208 | 2.6 | 6.1 | 0.01 | 0.21 | 0.21 | 96 | 1003.2 |
| 20260507035531 | 51 | 192 | 1.7 | 6.1 | 0.01 | 0.21 | 0.21 | 96 | 1003.1 |
| 20260507035026 | 50 | 217 | 2.6 | 9.6 | 0.00 | 0.20 | 0.20 | 96 | 1003.0 |
| 20260507034524 | 51 | 158 | 3.5 | 9.6 | 0.00 | 0.20 | 0.20 | 96 | 1003.0 |
| 20260507034027 | 51 | 231 | 2.6 | 7.0 | 0.00 | 0.20 | 0.20 | 96 | 1003.1 |
| 20260507033524 | 51 | 164 | 2.6 | 5.2 | 0.01 | 0.20 | 0.20 | 96 | 1003.0 |
| 20260507033030 | 51 | 169 | 1.7 | 5.2 | 0.01 | 0.20 | 0.20 | 96 | 1003.0 |
| 20260507032523 | 51 | 217 | 1.7 | 6.1 | 0.01 | 0.20 | 0.20 | 96 | 1003.2 |
| 20260507032029 | 51 | 160 | 0.9 | 5.2 | 0.01 | 0.20 | 0.20 | 96 | 1003.1 |
| 20260507031529 | 51 | 260 | 1.7 | 6.1 | 0.01 | 0.20 | 0.20 | 96 | 1003.1 |
| 20260507031023 | 51 | 192 | 1.7 | 5.2 | 0.01 | 0.20 | 0.20 | 96 | 1003.1 |
| 20260507030522 | 51 | 162 | 1.7 | 7.0 | 0.01 | 0.20 | 0.20 | 96 | 1003.0 |
| 20260507030022 | 50 | 175 | 2.6 | 8.7 | 0.01 | 0.20 | 0.20 | 96 | 1003.3 |
| 20260507025521 | 51 | 183 | 4.3 | 8.7 | 0.01 | 0.20 | 0.20 | 96 | 1003.1 |
| 20260507025025 | 50 | 180 | 4.3 | 9.6 | 0.01 | 0.20 | 0.20 | 96 | 1003.2 |
| 20260507024522 | 50 | 173 | 3.5 | 12.2 | 0.01 | 0.20 | 0.20 | 96 | 1003.2 |
| 20260507024121 | 50 | 175 | 4.3 | 11.3 | 0.01 | 0.20 | 0.20 | 96 | 1003.1 |
| 20260507023519 | 50 | 163 | 2.6 | 9.6 | 0.00 | 0.19 | 0.19 | 96 | 1003.2 |
| 20260507023020 | 50 | 179 | 3.5 | 12.2 | 0.00 | 0.19 | 0.19 | 96 | 1003.3 |
| 20260507022520 | 50 | 150 | 4.3 | 11.3 | 0.00 | 0.19 | 0.19 | 96 | 1003.4 |
| 20260507022019 | 50 | 249 | 6.1 | 13.0 | 0.01 | 0.19 | 0.19 | 96 | 1003.5 |
| 20260507021518 | 50 | 182 | 5.2 | 13.0 | 0.01 | 0.19 | 0.19 | 96 | 1003.5 |
| 20260507021017 | 50 | 200 | 7.0 | 12.2 | 0.02 | 0.19 | 0.19 | 96 | 1003.5 |
| 20260507020517 | 50 | 207 | 6.1 | 13.0 | 0.02 | 0.19 | 0.19 | 96 | 1003.6 |
| 20260507020021 | 50 | 212 | 5.2 | 16.5 | 0.02 | 0.19 | 0.19 | 96 | 1003.6 |
| 20260507015515 | 50 | 158 | 7.0 | 16.5 | 0.02 | 0.19 | 0.19 | 96 | 1003.7 |
| 20260507015014 | 50 | 203 | 6.1 | 15.6 | 0.02 | 0.19 | 0.19 | 96 | 1003.8 |
| 20260507014513 | 50 | 176 | 7.0 | 15.6 | 0.02 | 0.19 | 0.19 | 96 | 1003.8 |
| 20260507014013 | 50 | 201 | 5.2 | 12.2 | 0.02 | 0.19 | 0.19 | 96 | 1004.0 |
| 20260507013513 | 50 | 200 | 6.1 | 12.2 | 0.02 | 0.19 | 0.19 | 96 | 1003.9 |
| 20260507013016 | 50 | 173 | 5.2 | 17.4 | 0.03 | 0.19 | 0.19 | 95 | 1003.8 |
| 20260507012513 | 50 | 157 | 7.0 | 17.4 | 0.03 | 0.19 | 0.19 | 95 | 1003.8 |
| 20260507012011 | 50 | 234 | 6.1 | 13.9 | 0.02 | 0.18 | 0.18 | 95 | 1003.9 |
| 20260507011524 | 50 | 233 | 6.1 | 11.3 | 0.02 | 0.18 | 0.18 | 95 | 1004.1 |
| 20260507011009 | 49 | 186 | 4.3 | 16.5 | 0.01 | 0.17 | 0.17 | 95 | 1004.0 |
| 20260507010510 | 50 | 172 | 4.3 | 16.5 | 0.01 | 0.17 | 0.17 | 95 | 1004.0 |
| 20260507010009 | 50 | 243 | 4.3 | 16.5 | 0.01 | 0.17 | 0.17 | 95 | 1003.9 |
| 20260507005508 | 50 | 138 | 5.2 | 13.9 | 0.01 | 0.17 | 0.17 | 95 | 1003.9 |
| 20260507005010 | 50 | 238 | 5.2 | 13.9 | 0.01 | 0.17 | 0.17 | 95 | 1004.0 |
| 20260507004507 | 50 | 153 | 6.1 | 15.6 | 0.01 | 0.17 | 0.17 | 95 | 1003.9 |
| 20260507004007 | 50 | 112 | 6.1 | 13.9 | 0.01 | 0.17 | 0.17 | 95 | 1004.0 |
| 20260507003506 | 50 | 170 | 5.2 | 13.9 | 0.01 | 0.17 | 0.17 | 95 | 1004.1 |
| 20260507003005 | 50 | 145 | 6.1 | 12.2 | 0.00 | 0.16 | 0.16 | 95 | 1004.0 |
| 20260507002505 | 50 | 180 | 6.1 | 14.8 | 0.00 | 0.16 | 0.16 | 95 | 1004.0 |
| 20260507002003 | 50 | 171 | 6.1 | 14.8 | 0.00 | 0.16 | 0.16 | 95 | 1004.2 |
| 20260507001502 | 50 | 169 | 4.3 | 13.0 | 0.00 | 0.16 | 0.16 | 95 | 1004.3 |
| 20260507001004 | 50 | 205 | 5.2 | 13.0 | 0.00 | 0.16 | 0.16 | 95 | 1004.3 |
| 20260507000501 | 50 | 124 | 4.3 | 15.6 | 0.00 | 0.16 | 0.16 | 95 | 1004.2 |
| 20260507000059 | 50 | 194 | 7.0 | 15.6 | 0.00 | 0.16 | 0.16 | 95 | 1004.3 |
| 20260506235559 | 50 | 156 | 6.1 | 13.0 | 0.00 | 0.16 | 0.16 | 95 | 1004.2 |
| 20260506235100 | 50 | 180 | 7.0 | 15.6 | 0.00 | 0.16 | 0.16 | 95 | 1004.3 |
| 20260506234607 | 50 | 164 | 7.0 | 15.6 | 0.00 | 0.16 | 0.16 | 95 | 1004.3 |
| 20260506234058 | 50 | 122 | 6.1 | 14.8 | 0.00 | 0.16 | 0.16 | 95 | 1004.2 |
| 20260506233557 | 50 | 214 | 5.2 | 15.6 | 0.00 | 0.16 | 0.16 | 95 | 1004.2 |
| 20260506233058 | 50 | 175 | 7.0 | 15.6 | 0.00 | 0.16 | 0.16 | 95 | 1004.4 |
| 20260506232556 | 50 | 182 | 7.0 | 15.6 | 0.00 | 0.16 | 0.16 | 95 | 1004.4 |
| 20260506232058 | 51 | 203 | 5.2 | 17.4 | 0.00 | 0.16 | 0.16 | 95 | 1004.6 |
| 20260506231556 | 51 | 169 | 4.3 | 13.9 | 0.00 | 0.16 | 0.16 | 94 | 1004.7 |
| 20260506231054 | 51 | 182 | 7.0 | 13.9 | 0.00 | 0.16 | 0.16 | 94 | 1004.6 |
| 20260506230553 | 51 | 209 | 5.2 | 13.9 | 0.00 | 0.16 | 0.16 | 95 | 1004.6 |
| 20260506230059 | 51 | 194 | 4.3 | 13.9 | 0.00 | 0.16 | 0.16 | 95 | 1004.6 |
| 20260506225552 | 51 | 141 | 5.2 | 13.9 | 0.00 | 0.16 | 0.16 | 95 | 1004.6 |
| 20260506225051 | 51 | 155 | 4.3 | 13.9 | 0.01 | 0.16 | 0.16 | 94 | 1004.6 |
| 20260506224551 | 51 | 127 | 6.1 | 15.6 | 0.01 | 0.16 | 0.16 | 94 | 1004.9 |
| 20260506224050 | 51 | 182 | 4.3 | 15.6 | 0.01 | 0.16 | 0.16 | 94 | 1004.8 |
| 20260506223550 | 51 | 171 | 5.2 | 16.5 | 0.01 | 0.16 | 0.16 | 94 | 1004.8 |
| 20260506223050 | 51 | 169 | 5.2 | 13.9 | 0.02 | 0.16 | 0.16 | 94 | 1004.8 |
| 20260506222552 | 51 | 209 | 4.3 | 20.9 | 0.03 | 0.16 | 0.16 | 94 | 1004.9 |
| 20260506222049 | 51 | 209 | 7.8 | 20.9 | 0.03 | 0.16 | 0.16 | 94 | 1004.9 |
| 20260506221548 | 51 | 200 | 6.1 | 16.5 | 0.04 | 0.16 | 0.16 | 94 | 1005.0 |
| 20260506221050 | 51 | 111 | 7.0 | 16.5 | 0.05 | 0.16 | 0.16 | 94 | 1004.9 |
| 20260506220547 | 51 | 176 | 6.1 | 16.5 | 0.05 | 0.16 | 0.16 | 94 | 1005.1 |
| 20260506220048 | 51 | 196 | 5.2 | 16.5 | 0.06 | 0.16 | 0.16 | 94 | 1005.1 |
| 20260506215545 | 51 | 156 | 4.3 | 16.5 | 0.06 | 0.16 | 0.16 | 94 | 1005.1 |
| 20260506215043 | 51 | 223 | 5.2 | 18.2 | 0.05 | 0.15 | 0.15 | 93 | 1005.2 |
| 20260506214547 | 51 | 202 | 7.0 | 13.9 | 0.06 | 0.15 | 0.15 | 93 | 1005.1 |
| 20260506214043 | 51 | 150 | 6.1 | 12.2 | 0.06 | 0.15 | 0.15 | 93 | 1005.2 |
| 20260506213541 | 51 | 182 | 3.5 | 13.9 | 0.05 | 0.14 | 0.14 | 93 | 1005.2 |
| 20260506213043 | 51 | 143 | 2.6 | 13.9 | 0.06 | 0.14 | 0.14 | 93 | 1005.4 |
| 20260506212541 | 51 | 183 | 5.2 | 13.9 | 0.05 | 0.13 | 0.13 | 93 | 1005.5 |
| 20260506212042 | 51 | 196 | 5.2 | 13.9 | 0.05 | 0.13 | 0.13 | 93 | 1005.7 |
| 20260506211541 | 51 | 117 | 5.2 | 12.2 | 0.04 | 0.12 | 0.12 | 93 | 1005.6 |
| 20260506211041 | 51 | 104 | 4.3 | 10.4 | 0.04 | 0.11 | 0.11 | 93 | 1005.6 |
| 20260506210542 | 51 | 140 | 3.5 | 16.5 | 0.05 | 0.11 | 0.11 | 92 | 1005.5 |
| 20260506210038 | 51 | 142 | 7.0 | 16.5 | 0.04 | 0.10 | 0.10 | 93 | 1005.5 |
| 20260506205538 | 51 | 250 | 5.2 | 15.6 | 0.04 | 0.10 | 0.10 | 92 | 1005.6 |
| 20260506205039 | 51 | 194 | 3.5 | 13.9 | 0.04 | 0.10 | 0.10 | 92 | 1005.6 |
| 20260506204542 | 52 | 176 | 5.2 | 10.4 | 0.04 | 0.09 | 0.09 | 92 | 1005.4 |
| 20260506204040 | 52 | 221 | 5.2 | 13.0 | 0.05 | 0.09 | 0.09 | 92 | 1005.6 |
| 20260506203538 | 52 | 186 | 5.2 | 14.8 | 0.06 | 0.09 | 0.09 | 92 | 1005.7 |
| 20260506203041 | 52 | 188 | 6.1 | 14.8 | 0.05 | 0.08 | 0.08 | 92 | 1005.5 |
| 20260506202537 | 52 | 180 | 5.2 | 13.9 | 0.05 | 0.08 | 0.08 | 92 | 1005.5 |
| 20260506202038 | 52 | 155 | 4.3 | 9.6 | 0.06 | 0.08 | 0.08 | 92 | 1005.4 |
| 20260506201540 | 53 | 193 | 3.5 | 11.3 | 0.07 | 0.08 | 0.08 | 92 | 1005.5 |
| 20260506201035 | 53 | 159 | 6.1 | 11.3 | 0.06 | 0.06 | 0.06 | 92 | 1006.0 |
| 20260506200539 | 53 | 90 | 5.2 | 8.7 | 0.06 | 0.06 | 0.06 | 92 | 1005.8 |
| 20260506200040 | 53 | 178 | 4.3 | 10.4 | 0.06 | 0.06 | 0.06 | 91 | 1005.8 |
| 20260506195536 | 53 | 208 | 4.3 | 10.4 | 0.06 | 0.06 | 0.06 | 92 | 1006.1 |
| 20260506195034 | 53 | 147 | 5.2 | 12.2 | 0.06 | 0.06 | 0.06 | 92 | 1006.1 |
| 20260506194535 | 53 | 150 | 4.3 | 13.0 | 0.05 | 0.05 | 0.05 | 92 | 1006.2 |
| 20260506194034 | 53 | 153 | 3.5 | 11.3 | 0.04 | 0.04 | 0.04 | 91 | 1006.3 |
| 20260506193534 | 53 | 137 | 5.2 | 11.3 | 0.03 | 0.03 | 0.03 | 91 | 1006.3 |
| 20260506193034 | 53 | 182 | 4.3 | 10.4 | 0.03 | 0.03 | 0.03 | 91 | 1006.2 |
| 20260506192533 | 52 | 171 | 1.7 | 10.4 | 0.03 | 0.03 | 0.03 | 90 | 1006.3 |
| 20260506192034 | 52 | 169 | 2.6 | 10.4 | 0.02 | 0.02 | 0.02 | 90 | 1006.1 |
| 20260506191534 | 52 | 222 | 3.5 | 11.3 | 0.01 | 0.01 | 0.01 | 89 | 1006.3 |
| 20260506191034 | 52 | 189 | 3.5 | 11.3 | 0.00 | 0.00 | 0.00 | 89 | 1006.3 |
| 20260506190533 | 52 | 234 | 3.5 | 13.0 | 0.00 | 0.00 | 0.00 | 89 | 1006.3 |
| 20260506190037 | 52 | 210 | 7.0 | 15.6 | 0.00 | 0.00 | 0.00 | 89 | 1005.9 |
| 20260506185533 | 52 | 190 | 7.0 | 15.6 | 0.00 | 0.00 | 0.00 | 88 | 1005.7 |
| 20260506185031 | 52 | 111 | 5.2 | 12.2 | 0.00 | 0.00 | 0.00 | 88 | 1005.7 |
| 20260506184538 | 52 | 248 | 7.0 | 16.5 | 0.00 | 0.00 | 0.00 | 88 | 1005.5 |
| 20260506184032 | 52 | 167 | 6.1 | 16.5 | 0.00 | 0.00 | 0.00 | 88 | 1005.6 |
| 20260506183533 | 52 | 159 | 7.0 | 16.5 | 0.00 | 0.00 | 0.00 | 87 | 1005.7 |
| 20260506183029 | 52 | 141 | 4.3 | 13.9 | 0.00 | 0.00 | 0.00 | 87 | 1005.8 |
| 20260506182529 | 52 | 242 | 5.2 | 11.3 | 0.00 | 0.00 | 0.00 | 87 | 1005.8 |
| 20260506182028 | 52 | 171 | 4.3 | 15.6 | 0.00 | 0.00 | 0.00 | 87 | 1005.8 |
| 20260506181528 | 52 | 187 | 5.2 | 15.6 | 0.00 | 0.00 | 0.00 | 87 | 1006.0 |
| 20260506181029 | 52 | 178 | 7.0 | 12.2 | 0.00 | 0.00 | 0.00 | 86 | 1006.1 |
| 20260506180529 | 52 | 165 | 3.5 | 13.9 | 0.00 | 0.00 | 0.00 | 86 | 1006.0 |
| 20260506180029 | 52 | 163 | 6.1 | 13.9 | 0.00 | 0.00 | 0.00 | 86 | 1006.0 |
| 20260506175526 | 52 | 192 | 3.5 | 13.0 | 0.00 | 0.00 | 0.00 | 86 | 1006.1 |
| 20260506175026 | 52 | 183 | 6.1 | 13.0 | 0.00 | 0.00 | 0.00 | 86 | 1006.1 |
| 20260506174526 | 52 | 209 | 4.3 | 13.0 | 0.00 | 0.00 | 0.00 | 86 | 1006.1 |
| 20260506174028 | 52 | 161 | 4.3 | 13.0 | 0.00 | 0.00 | 0.00 | 86 | 1006.2 |
| 20260506173525 | 52 | 144 | 5.2 | 13.0 | 0.00 | 0.00 | 0.00 | 87 | 1006.3 |
| 20260506173031 | 52 | 232 | 4.3 | 13.0 | 0.00 | 0.00 | 0.00 | 86 | 1006.4 |
| 20260506172523 | 52 | 145 | 5.2 | 13.0 | 0.00 | 0.00 | 0.00 | 86 | 1006.6 |
| 20260506172023 | 52 | 113 | 6.1 | 13.0 | 0.00 | 0.00 | 0.00 | 86 | 1006.6 |
| 20260506171526 | 52 | 156 | 4.3 | 13.0 | 0.00 | 0.00 | 0.00 | 86 | 1006.6 |
| 20260506171024 | 53 | 157 | 4.3 | 13.0 | 0.00 | 0.00 | 0.00 | 86 | 1006.7 |
| 20260506170522 | 53 | 144 | 5.2 | 11.3 | 0.00 | 0.00 | 0.00 | 85 | 1006.8 |
| 20260506170021 | 53 | 175 | 5.2 | 13.0 | 0.00 | 0.00 | 0.00 | 85 | 1007.0 |
| 20260506165520 | 53 | 153 | 6.1 | 13.9 | 0.00 | 0.00 | 0.00 | 85 | 1007.0 |
| 20260506165020 | 54 | 184 | 7.8 | 15.6 | 0.00 | 0.00 | 0.00 | 84 | 1007.0 |
| 20260506164520 | 54 | 92 | 6.1 | 13.0 | 0.00 | 0.00 | 0.00 | 84 | 1007.3 |
| 20260506164019 | 54 | 139 | 6.1 | 16.5 | 0.00 | 0.00 | 0.00 | 84 | 1007.3 |
| 20260506163521 | 54 | 155 | 7.0 | 13.0 | 0.00 | 0.00 | 0.00 | 84 | 1007.5 |
| 20260506163027 | 55 | 192 | 6.1 | 15.6 | 0.00 | 0.00 | 0.00 | 84 | 1007.5 |
| 20260506162521 | 55 | 173 | 4.3 | 15.6 | 0.00 | 0.00 | 0.00 | 84 | 1007.8 |
| 20260506162020 | 55 | 163 | 7.0 | 18.2 | 0.00 | 0.00 | 0.00 | 84 | 1007.9 |
| 20260506161519 | 55 | 192 | 5.2 | 18.2 | 0.00 | 0.00 | 0.00 | 84 | 1008.1 |
| 20260506161018 | 55 | 165 | 7.8 | 14.8 | 0.00 | 0.00 | 0.00 | 84 | 1008.0 |
| 20260506160519 | 55 | 151 | 5.2 | 15.6 | 0.00 | 0.00 | 0.00 | 84 | 1008.1 |
| 20260506160017 | 55 | 175 | 7.0 | 15.6 | 0.00 | 0.00 | 0.00 | 84 | 1008.3 |
| 20260506155517 | 55 | 172 | 3.5 | 17.4 | 0.00 | 0.00 | 0.00 | 85 | 1008.4 |
| 20260506155017 | 55 | 161 | 3.5 | 15.6 | 0.00 | 0.00 | 0.00 | 85 | 1008.4 |
| 20260506154517 | 55 | 164 | 7.0 | 15.6 | 0.00 | 0.00 | 0.00 | 85 | 1008.2 |
| 20260506154018 | 55 | 143 | 6.1 | 13.0 | 0.00 | 0.00 | 0.00 | 86 | 1008.3 |
| 20260506153516 | 55 | 184 | 7.8 | 17.4 | 0.00 | 0.00 | 0.00 | 85 | 1008.3 |
| 20260506153015 | 54 | 206 | 7.0 | 17.4 | 0.00 | 0.00 | 0.00 | 85 | 1008.5 |
| 20260506152515 | 54 | 184 | 5.2 | 16.5 | 0.00 | 0.00 | 0.00 | 85 | 1008.5 |
| 20260506152015 | 54 | 184 | 7.0 | 16.5 | 0.00 | 0.00 | 0.00 | 85 | 1008.4 |
| 20260506151617 | 55 | 221 | 6.1 | 16.5 | 0.00 | 0.00 | 0.00 | 84 | 1008.2 |
| 20260506151018 | 55 | 212 | 4.3 | 16.5 | 0.00 | 0.00 | 0.00 | 84 | 1008.5 |
| 20260506150514 | 55 | 177 | 7.0 | 18.2 | 0.00 | 0.00 | 0.00 | 83 | 1008.3 |
| 20260506150014 | 56 | 160 | 7.8 | 20.0 | 0.00 | 0.00 | 0.00 | 83 | 1008.1 |
| 20260506145514 | 56 | 186 | 7.0 | 20.0 | 0.00 | 0.00 | 0.00 | 84 | 1008.2 |
| 20260506145013 | 56 | 190 | 5.2 | 13.9 | 0.00 | 0.00 | 0.00 | 84 | 1007.9 |
| 20260506144512 | 55 | 194 | 6.1 | 17.4 | 0.00 | 0.00 | 0.00 | 84 | 1008.0 |
| 20260506144011 | 55 | 178 | 8.7 | 17.4 | 0.00 | 0.00 | 0.00 | 84 | 1007.7 |
| 20260506143511 | 55 | 155 | 7.0 | 15.6 | 0.00 | 0.00 | 0.00 | 84 | 1007.9 |
| 20260506143021 | 55 | 181 | 7.8 | 13.0 | 0.00 | 0.00 | 0.00 | 85 | 1008.0 |
| 20260506142514 | 55 | 134 | 6.1 | 12.2 | 0.00 | 0.00 | 0.00 | 85 | 1008.2 |
| 20260506142010 | 55 | 157 | 4.3 | 13.0 | 0.00 | 0.00 | 0.00 | 85 | 1008.2 |
| 20260506141509 | 55 | 215 | 5.2 | 14.8 | 0.00 | 0.00 | 0.00 | 85 | 1008.3 |
| 20260506141014 | 55 | 134 | 4.3 | 13.0 | 0.00 | 0.00 | 0.00 | 86 | 1008.4 |
| 20260506140510 | 54 | 182 | 6.1 | 13.0 | 0.00 | 0.00 | 0.00 | 86 | 1008.5 |
| 20260506140009 | 54 | 212 | 6.1 | 13.0 | 0.00 | 0.00 | 0.00 | 86 | 1008.6 |
| 20260506135509 | 54 | 145 | 7.0 | 10.4 | 0.00 | 0.00 | 0.00 | 86 | 1008.6 |
| 20260506135009 | 54 | 213 | 4.3 | 11.3 | 0.00 | 0.00 | 0.00 | 86 | 1008.5 |
| 20260506134508 | 54 | 244 | 7.0 | 11.3 | 0.00 | 0.00 | 0.00 | 86 | 1008.5 |
| 20260506134011 | 54 | 164 | 4.3 | 10.4 | 0.00 | 0.00 | 0.00 | 86 | 1008.5 |
| 20260506133511 | 54 | 273 | 3.5 | 11.3 | 0.00 | 0.00 | 0.00 | 85 | 1008.5 |
| 20260506133007 | 54 | 155 | 4.3 | 12.2 | 0.00 | 0.00 | 0.00 | 85 | 1008.5 |
| 20260506132513 | 54 | 135 | 4.3 | 13.0 | 0.00 | 0.00 | 0.00 | 86 | 1008.5 |
| 20260506132007 | 54 | 176 | 5.2 | 13.0 | 0.00 | 0.00 | 0.00 | 85 | 1008.5 |
| 20260506131507 | 54 | 250 | 2.6 | 13.0 | 0.00 | 0.00 | 0.00 | 85 | 1008.4 |
| 20260506131007 | 54 | 221 | 4.3 | 12.2 | 0.00 | 0.00 | 0.00 | 84 | 1008.4 |
| 20260506130507 | 54 | 167 | 4.3 | 12.2 | 0.00 | 0.00 | 0.00 | 84 | 1008.4 |
| 20260506130007 | 55 | 172 | 2.6 | 12.2 | 0.00 | 0.00 | 0.00 | 84 | 1008.5 |
| 20260506125506 | 55 | 233 | 3.5 | 12.2 | 0.00 | 0.00 | 0.00 | 84 | 1008.3 |
| 20260506125009 | 55 | 219 | 5.2 | 14.8 | 0.00 | 0.00 | 0.00 | 84 | 1008.3 |